Simultaneous Nadir Overpasses (SNOs) Predictions

Prediction of SNOs between METOP-B and TERRA Satellite Orbit:

Table of predicted SNOs for the next 14.0 days since TLE Epoch: 7/6/2018
Index Date (METOP-B) Time (METOP-B) Lat,Lon (METOP-B) SZA (METOP-B ) Date (TERRA) Time (TERRA) Lat,Lon (TERRA) SZA (TERRA ) Distance(km) Time Diff (sec)
1 07/08/2018 15:02:15 81.35, 2.61 61.80 07/08/2018 15:02:52 81.36, 2.58 61.81 0.60 37
2 07/08/2018 15:52:55 -81.36, 170.12 118.18 07/08/2018 15:52:19 -81.36, 170.20 118.19 1.36 36
3 07/11/2018 10:36:34 81.35, 68.99 62.13 07/11/2018 10:37:06 81.36, 69.10 62.16 2.16 32
4 07/11/2018 11:27:13 -81.36,-123.09 117.80 07/11/2018 11:26:33 -81.36,-123.25 117.84 2.68 40
5 07/14/2018 06:10:54 81.35, 135.36 62.51 07/14/2018 06:11:22 81.34, 135.21 62.50 2.63 28
6 07/14/2018 07:01:33 -81.36, -56.71 117.41 07/14/2018 07:00:48 -81.37, -56.75 117.44 0.97 45
7 07/17/2018 01:45:14 81.35,-158.28 62.95 07/17/2018 01:45:37 81.35,-158.33 62.94 1.23 23
8 07/17/2018 02:35:53 -81.36, 9.67 116.98 07/17/2018 02:35:03 -81.37, 9.72 116.99 1.21 50
9 07/19/2018 21:19:33 81.35, -91.92 63.43 07/19/2018 21:19:51 81.34, -91.91 63.43 0.85 18




NCC Satellite Simultaneous Nadir Overpasses (SNOs) Prediction Service
